Lid_Strength_Index
1 2 2 3 7 8 9 8 6 6 6 4 4 4 5 5 7 9 2 1 0 0 -0 -0 -1 -1 -1 -1 -1 -1 -1 -1 -1 -1 -1 -1 -1 -1 -1 -1 -1 -1 -1 -1 -1 -1 -1 -1 -1
3 4 3 5 9 10 9 6 7 6 5 4 4 4 5 6 3 3 3 1 0 0 -0 -0 -1 -1 -1 -1 -1 -1 -1 -1 -1 -1 -1 -1 -1 -1 -1 -1 -1 -1 -2 -2 -2 -2 -1 -1 -1
0 1 6 7 8 10 9 6 6 5 4 4 5 3 4 5 3 2 1 0 0 0 -0 -0 -1 -1 -1 -1 -1 -1 -1 -1 -1 -1 -1 -1 -1 -1 -1 -2 -2 -2 -2 -2 -2 -1 -1 -1 -1
1 3 6 9 9 7 7 6 5 5 4 4 4 5 3 2 2 1 0 0 0 0 -0 -0 -1 -1 -1 -1 -1 -1 -1 -1 -1 -1 -1 -1 -1 -2 -2 -2 -2 -2 -2 -2 -2 -2 -2 -1 -1
4 5 9 9 9 6 5 5 5 5 5 4 4 5 4 2 1 1 1 0 1 0 -0 -0 -1 -1 -1 -1 -1 -1 -1 -1 -1 -1 -1 -1 -2 -2 -2 -2 -2 -2 -2 -2 -2 -2 -2 -2 -2
6 7 11 10 9 6 5 5 5 5 5 4 4 4 4 1 1 1 1 0 0 0 0 -0 -1 -1 -1 -1 -1 -1 -1 -1 -1 -1 -1 -2 -2 -2 -2 -2 -2 -2 -2 -2 -2 -2 -2 -2 -2
6 8 10 11 9 8 6 4 5 5 5 6 4 5 3 2 1 1 1 0 0 0 0 -0 -0 -1 -1 -1 -1 -1 -1 -1 -1 -1 -1 -1 -1 -1 -2 -2 -2 -2 -2 -2 -2 -2 -2 -2 -2
5 6 9 9 10 9 6 5 4 5 5 3 3 5 5 3 1 1 1 1 0 0 0 0 -0 -0 -0 -0 -1 -1 -1 -1 -1 -1 -1 -1 -1 -1 -1 -1 -1 -2 -2 -2 -2 -2 -1 -1 -1
3 8 10 9 8 8 5 6 5 4 5 4 3 3 2 2 1 1 2 2 1 1 1 0 0 0 -0 -0 -1 -1 -1 -1 -1 -1 -1 -1 -1 -1 -1 -1 -2 -2 -2 -2 -1 -1 -1 -1 -1
6 9 8 6 6 7 6 5 6 5 5 5 4 2 2 2 2 2 2 2 2 1 1 0 0 0 0 -0 -0 -0 -0 -1 -1 -1 -1 -1 -1 -1 -1 -1 -2 -2 -2 -1 -1 -1 -1 -1 -0
6 9 6 6 5 4 6 6 5 5 6 5 4 3 2 2 2 2 2 2 2 1 1 1 0 0 0 0 0 -0 -0 -0 -0 -0 -1 -1 -0 -1 -0 -0 -0 -1 -1 -0 -1 -1 -0 -0 -0
8 6 6 5 5 5 6 4 6 5 5 4 3 3 2 3 2 3 2 2 2 1 1 1 0 0 0 -0 0 0 0 -0 0 -0 -0 -0 0 0 0 -0 -0 -0 -0 -0 -0 -0 -0 -0 -0
8 7 6 5 5 5 4 5 5 5 3 3 3 3 3 3 2 2 2 1 1 2 1 1 1 1 0 0 -0 0 0 0 0 -0 -0 -0 0 0 0 0 -0 -0 -0 -0 0 0 0 0 0
5 6 6 6 6 5 6 6 5 5 4 3 3 3 4 3 2 2 2 2 1 0 -3 0 1 1 0 1 0 0 -0 -0 0 0 -0 -0 -0 0 0 0 0 0 -0 -0 0 0 0 0 0
6 7 6 6 6 6 5 7 7 4 4 4 4 3 3 3 2 2 2 2 1 1 -1 -0 1 0 1 1 0 0 0 0 0 -0 -0 -0 -0 0 0 0 0 0 -0 -0 0 0 0 1 0
9 8 10 7 6 5 6 9 6 4 5 5 4 4 3 3 2 2 2 1 1 1 0 -0 -0 1 1 1 1 1 0 0 0 0 -0 -0 -0 -0 0 1 1 0 0 0 0 1 1 1 1
9 12 11 9 6 6 6 8 5 4 5 5 5 4 4 3 3 2 2 1 1 1 1 0 0 0 1 1 0 0 0 0 0 0 0 0 0 -0 0 0 0 -0 0 0 1 1 1 2 1
12 11 10 11 8 7 7 7 6 5 5 5 5 4 4 4 3 2 2 1 1 1 1 1 0 0 -0 0 0 0 0 0 0 0 0 -0 0 -0 0 0 0 0 1 1 1 1 1 1 1
9 10 11 9 8 8 8 7 6 5 5 5 5 5 4 4 3 2 2 2 1 1 2 1 1 1 1 1 2 2 2 1 1 0 0 0 0 0 0 0 0 0 1 1 1 1 2 2 1
9 10 11 9 8 8 8 9 7 5 5 5 5 5 4 4 4 3 2 1 2 2 2 2 1 1 1 1 1 1 1 1 1 0 0 0 0 0 0 1 1 1 1 1 1 1 2 2 1
10 10 10 11 9 8 9 10 8 6 5 5 4 4 4 4 4 3 3 2 2 2 2 2 2 1 1 1 1 1 1 1 1 1 1 0 0 0 0 0 0 1 1 1 1 1 2 3 2
12 8 9 10 10 14 9 14 9 7 7 6 5 4 4 4 3 3 3 3 2 2 2 1 1 2 1 1 2 2 3 3 2 2 1 1 0 0 0 0 0 1 1 1 1 1 1 2 3
9 7 8 9 10 11 11 12 12 8 8 7 6 5 4 4 3 3 3 2 2 1 2 1 1 2 1 1 2 2 2 2 1 1 1 1 1 0 0 0 0 1 1 1 1 1 1 1 2
6 8 8 9 10 14 12 12 13 10 8 7 5 5 4 4 3 3 2 2 2 2 2 1 2 2 1 1 2 2 2 2 2 2 2 2 1 1 1 0 0 0 1 1 1 1 1 1 1
7 10 15 15 14 15 10 12 10 8 7 6 6 5 4 4 3 3 3 3 2 2 2 2 2 2 2 2 2 2 2 2 2 2 2 2 2 2 1 1 1 1 0 1 0 1 1 1 1
9 10 15 20 17 15 10 14 12 7 6 5 5 5 4 4 3 3 2 2 2 2 2 2 2 2 2 2 2 1 1 2 2 2 2 2 2 1 1 1 1 1 0 0 0 1 1 1 1
10 11 8 12 12 16 13 10 8 7 6 6 6 5 4 3 3 3 3 2 2 2 2 2 2 2 2 2 2 2 1 1 2 1 1 1 1 1 1 1 1 0 0 1 1 1 1 1 1
8 7 12 12 19 20 14 13 12 9 8 6 6 5 5 4 3 3 3 3 2 2 2 2 2 2 2 2 2 2 2 1 1 1 2 1 1 1 1 1 1 1 1 1 1 1 1 1 1
10 11 12 11 13 17 17 14 8 10 9 9 6 5 5 4 3 3 3 3 3 2 2 2 2 2 2 2 2 2 2 1 1 1 1 1 1 1 1 1 1 1 1 1 1 1 1 1 1
8 11 11 16 16 14 14 14 7 8 8 8 8 5 4 4 3 3 4 3 3 3 2 2 2 2 2 2 2 2 2 2 2 1 1 1 1 1 1 1 1 1 1 1 1 1 1 2 2